Location: Petrozavodsk
(61.7857°N, 34.3593°E)
Time: 11:45:40
(UTC+03:00)

Terra - Pass Details

Date: 25 October 2019
Orbit: 702 x 703 km, 98.2° (Epoch: 22 November)

Event Time Altitude Azimuth Distance (km) Brightness Sun altitude
Exits shadow 20:12:08 20° 33° (NNE) 1,601 3.5 -23.0°
Drops below altitude 10° 20:14:59 10° 357° (N) 2,186 4.6 -23.3°
Sets 20:17:43 0° 341° (NNW) 3,108 5.7 -23.6°
